STARLINK-32847, 62811

Orbit data source: Space-Track

STARLINK-32847, 62811 is a payload satellite owned by SpaceX/Seattle (US) in LEO that was launched on Fri, 24 Jan 2025 UTC via an FALCON 9 launch vehicle from the Air Force Western Test Range (AFWTR). Payload-class satellites include a variety of spacecraft equipped with specific instruments for various scientific and technological missions. These include communications satellites like Starlink; space stations such as the ISS; scientific satellites like the Hubble; Earth observation satellites from companies like Planet Labs, Umbra, and HawkEye 360; GPS; miniature CubeSats for education and research; and military/defense satellites.

Loading next visibility...
Identifier
62811, 2025-018F
Orbit
LEO
Country
Flag of USUS
Related business
Manufacturer
SpaceX/Seattle
Mission
Operational Commercial Communications
Bus & Motor
STARLINK V2M, Unknown motor
Mass
730 kg wet, ~700 kg dry
Launch date (UTC)
2025-01-24 (9 months ago)
Launch vehicle
FALCON 9
Launch site
Air Force Western Test Range (AFWTR)
Object type
Payload
Rocket body
Debris
Shape & HBR
Box + 2 Pan, 17.7 m
Radar Cross Section
33.884 m², Large (>1 m²)

Expand to show TLE details & history
Last TLE update: 11 hours ago

TLE from 11 hours ago
0 STARLINK-32847
1 62811U 25018F   25289.09346319  .00040693  00000-0  13776-2 0  9993
2 62811  53.1580 260.9765 0001831  56.4877 303.6299 15.30220852 41035
Epoch: 2025-10-16T02:14Z
TLE epoch observation values (Epoch: 2025-10-16T02:14:35.219Z)
Latitude
0.00001°
Longitude
-157.52837°
Altitude
475.358 km
Speed
7.63 km/s
True Right ascension
17h 23m 54s
True Declination
0° 00' 00"
Sunlit
Object was in daylight at epoch
Visualization orbit readout
Latitude
Unknown
Longitude
Unknown
Altitude
Unknown
Speed
Unknown
Apparent Right ascension
Unknown
Apparent Declination
Unknown
Sunlit
N/A
Visualization observer readout
Local Sidereal Time
07:54:29
Azimuth
Unknown
Elevation
Unknown
Doppler factor
Unknown
Orbital elements
Apogee altitude
476.664 km
Perigee altitude
474.155 km
Semi-major axis
6,853.547 km
Eccentricity
0.00018
Inclination
53.158°
RAAN
260.9765°
Arg. of periapsis
56.4877°
True anomaly
303.61243°
Mean anomaly
303.6299°
Eccentric anomaly
303.62116°
Mean motion
3.82534 °/min
Orbital period
94.11 mins
BSTAR
0.0013776
Loading maneuver chart data...
Computing Atmospheric mass density...
Loading historical data...
Loading historical data...
Loading historical data...
Loading historical data...
Loading historical data...
Loading historical data...
Loading historical data...

Documentation

Showing up to 5 results
|